Content
SEND FEEDBACK

Daily
Averages
Monthly
Summary
United Kingdom

BOURNE, ENGLAND


Home > Europe > United Kingdom > England
Elevation: 81 feet     Latitude: 52 05N     Longitude: 000 03W

WEATHER
 
SELECT A DAY
Number of Records: 132,925;   Date Range: 7/1/96 - 12/16/14
 
SHARE

PRINT THIS DATA

[ ← Previous Day ]
WEATHER ALMANAC - SEPTEMBER 18, 2013
[ Next Day → ]
[ °C ]   °F
Weather ElementAverageHighLow
Temperature55.5 °F59 °F (12:50 pm)48.2 °F (6:50 am)
Dewpoint45.4 °F48.2 °F (9:20 am)42.8 °F (5:50 pm)
Humidity69.9 %93 % (6:50 am)55 % (5:50 pm)
Barometer29.64 in29.77 in (7:50 pm)29.50 in (6:50 am)
Wind Speed11.8 mph19.6 mph (3:20 pm)
Wind Gust28.8 mph (4:50 pm)
Weather ElementAverage
Visibility5.7 mi
Wind DirectionWNW (275.7 °)

Weather ElementTotal
Precipitation---
Heating Degree Days11.4 (Base 65)
Growing Degree Days3.6 (Base 50)
Averaged from 28 records on September 18, 2013
WEATHER CONDITIONS BREAKOUT
WIND DIRECTION BREAKOUT
WEATHER BY HOUR - SEPTEMBER 18, 2013
[ °C ]   °F
Local TimeTemperatureDewpointHumidityBarometerVisibilityWind DirectionWind SpeedGust SpeedPrecipitationEventsConditions
6:50 AM48.2 °F46.4 °F93 %29.50 in3.7 miWest (260°)4.6 mphScattered Clouds
7:20 AM48.2 °F46.4 °F93 %29.53 in3.7 miWest (260°)5.8 mphPartly Cloudy
7:50 AM48.2 °F46.4 °F93 %29.53 in3.7 miWest (260°)4.6 mphPartly Cloudy
8:20 AM50.0 °F46.4 °F87 %29.56 in4.3 miWest (280°)4.6 mphPartly Cloudy
8:50 AM51.8 °F46.4 °F82 %29.56 in5.0 miWNW (290°)9.2 mphPartly Cloudy
9:20 AM53.6 °F48.2 °F82 %29.56 in5.0 miWNW (290°)9.2 mphPartly Cloudy
9:50 AM53.6 °F48.2 °F82 %29.59 in5.6 miWNW (290°)8.1 mphPartly Cloudy
10:20 AM55.4 °F48.2 °F77 %29.59 in5.6 miWNW (290°)6.9 mphPartly Cloudy
10:50 AM57.2 °F46.4 °F67 %29.59 in6.2 miWest (270°)11.5 mphScattered Clouds
11:20 AM57.2 °F48.2 °F72 %29.59 in6.2 miWest (270°)11.5 mphScattered Clouds
11:50 AM55.4 °F46.4 °F72 %29.62 in6.2 miWest (280°)11.5 mphMostly Cloudy
12:20 PM57.2 °F48.2 °F72 %29.62 in6.2 miWest (280°)13.8 mphScattered Clouds
12:50 PM59.0 °F46.4 °F63 %29.62 in6.2 miWest (280°)13.8 mphScattered Clouds
1:20 PM59.0 °F44.6 °F59 %29.62 in6.2 miWest (280°)12.7 mphScattered Clouds
1:50 PM57.2 °F46.4 °F67 %29.65 in6.2 miWest (280°)15.0 mphScattered Clouds
2:20 PM59.0 °F44.6 °F59 %29.65 in6.2 miWest (280°)16.1 mphScattered Clouds
2:50 PM59.0 °F44.6 °F59 %29.65 in6.2 miWest (270°)12.7 mphScattered Clouds
3:20 PM57.2 °F44.6 °F63 %29.65 in6.2 miWest (270°)19.6 mphScattered Clouds
3:50 PM59.0 °F44.6 °F59 %29.68 in6.2 miWest (270°)18.4 mphPartly Cloudy
4:50 PM59.0 °F44.6 °F59 %29.68 in6.2 miWest (270°)17.3 mph28.8 mphPartly Cloudy
5:20 PM59.0 °F44.6 °F59 %29.68 in6.2 miWest (280°)18.4 mphPartly Cloudy
5:50 PM59.0 °F42.8 °F55 %29.71 in6.2 miWest (280°)18.4 mphPartly Cloudy
6:20 PM57.2 °F42.8 °F59 %29.71 in6.2 miWest (280°)12.7 mphPartly Cloudy
6:50 PM57.2 °F42.8 °F59 %29.74 in6.2 miWest (280°)10.4 mphPartly Cloudy
7:20 PM55.4 °F42.8 °F63 %29.74 in6.2 miWest (270°)11.5 mphPartly Cloudy
7:50 PM53.6 °F42.8 °F67 %29.77 inWest (280°)10.4 mphClear
8:20 PM53.6 °F42.8 °F67 %29.77 inWest (270°)11.5 mphClear
8:50 PM53.6 °F42.8 °F67 %29.77 inWest (260°)9.2 mphClear
Hourly data recorded from EGSC, located miles away from Bourne, England







STORIES FROM OUR PARTNERS